Regional Weather Roundup
Issued by NWS

Home | Current Version | Previous Version | Text Only | Print | Product List | Glossary Off
Versions: 1 2 3 4 5 6 7 8 9 10 11 12 13 14 15 16 17 18 19 20 21 22 23 24 25 26 27 28 29 30 31 32 33 34 35 36 37 38 39 40 41 42 43 44 45 46 47 48 49 50

000
ASUS43 KDMX 270907
RWRIA

WEATHER ROUNDUP FOR IOWA
NATIONAL WEATHER SERVICE DES MOINES IA
300 AM CST FRI FEB 27 2015

NOTE: "FAIR" INDICATES FEW OR NO CLOUDS BELOW 12,000 FEET WITH NO
SIGNIFICANT WEATHER AND/OR OBSTRUCTIONS TO VISIBILITY.

* - THESE STATIONS ARE NOT NWS STATIONS...THUS NOT UNDER NWS
QUALITY CONTROL.  THEY ALSO DO NOT REPORT WEATHER SUCH
AS PRECIPITATION OR FOG.

IAZ001>003-012>014-020>022-031>034-043>046-271000-
   NORTHWEST IOWA

CITY           SKY/WX    TMP DP  RH WIND       PRES   REMARKS
CARROLL *      CLEAR    -11 -17  77 W9        30.55S WCI -29
CHEROKEE *     CLEAR    -17 -20  83 CALM      30.56S
DENISON *      CLEAR    -13 -18  77 CALM      30.55R
LE MARS *      CLEAR     -8 -13  77 CALM      30.57F
ORANGE CITY *  CLEAR     -8 -13  77 CALM      30.52S
SHELDON *      CLEAR    -11 -18  70 NW5       30.52S WCI -23
SIOUX CITY     CLEAR     -4  -9  79 W3        30.59S
SPENCER        CLEAR    -14 -20  74 W7        30.52F WCI -30
STORM LAKE *   CLEAR    -11 -17  77 W12       30.52S WCI -31
$$

IAZ055>058-069>071-079>083-090>094-271000-
   SOUTHWEST IOWA

CITY           SKY/WX    TMP DP  RH WIND       PRES   REMARKS
ATLANTIC *     CLEAR     -8 -13  77 CALM      30.57S
AUDUBON *      CLEAR    -13 -18  77 CALM      30.55S
CLARINDA *     CLEAR     -4  -8  84 CALM      30.62S
COUNCIL BLFS * CLEAR      0  -6  78 NW5       30.56F WCI -10
CRESTON *      CLEAR     -6 -11  77 W6        30.55S WCI -18
HARLAN  *      CLEAR     -8  -9  92 CALM      30.61S
LAMONI         CLEAR     -4  -9  79 NW5       30.56R WCI -15
RED OAK *      CLEAR     -4  -8  84 W3        30.60S
SHENANDOAH *   PTCLDY    -4  -9  77 CALM      30.62S
$$

IAZ047>049-059>061-072>074-084-271000-
   CENTRAL IOWA

CITY           SKY/WX    TMP DP  RH WIND       PRES   REMARKS
AMES           CLEAR     -6 -12  75 NW7       30.56S WCI -20
ANKENY *       CLEAR     -8 -13  77 W6        30.58S WCI -21
CHARITON *     PTCLDY    -6 -11  77 W6        30.56S WCI -18
DES MOINES     CLEAR     -5 -11  75 W6        30.57S WCI -18
GRINNELL*      CLEAR     -9 -15  77 W6        30.55R WCI -23
KNOXVILLE *    CLEAR     -8 -15  71 W7        30.56R WCI -22
MARSHALLTOWN   PTCLDY   -16 -20  82 W8        30.53S WCI -34
PELLA *        CLEAR     -8  -9  92 NW6       30.58S WCI -21
PERRY *          N/A    -11 -15  84 W9        30.57S WCI -29
$$

IAZ004>006-015-016-023>025-035-036-271000-
   NORTH CENTRAL IOWA

CITY           SKY/WX    TMP DP  RH WIND       PRES   REMARKS
ALGONA *       CLEAR    -11 -15  84 W9        30.53S WCI -29
CLARION *      CLEAR    -18 -26  69 CALM      30.53S
ESTHERVILLE    CLEAR    -13 -17  82 NW9       30.51R WCI -31
FORT DODGE *   CLEAR     -9 -15  77 CALM      30.54F
MASON CITY     PTCLDY   -14 -18  82 W9        30.51S WCI -33
FOREST CITY *  CLEAR    -13 -18  77 CALM      30.50S
IOWA FALLS *     N/A    -17 -22  76 W8        30.53S WCI -34
$$

IAZ007>011-017>019-026>030-037>042-050>054-066-271000-
   NORTHEAST IOWA

CITY           SKY/WX    TMP DP  RH WIND       PRES   REMARKS
CEDAR RAPIDS   CLEAR    -13 -17  82 NW8       30.53R WCI -30
CHARLES CITY * CLEAR    -13 -20  70 W5        30.51S WCI -25
CLINTON *      CLEAR    -17 -22  76 W9        30.53S WCI -36
DECORAH *      CLEAR     -9 -17  70 W3        30.47S
DUBUQUE          N/A    -13 -17  82 SW3       30.48R
MONTICELLO *   CLEAR    -15 -20  76 CALM      30.53R
OELWEIN *      CLEAR    -17 -24  70 W5        30.51R WCI -29
WATERLOO       PTCLDY   -18 -19  96 W3        30.54R
$$

IAZ064-065-067-068-078-271000-
   EAST CENTRAL IOWA

CITY           SKY/WX    TMP DP  RH WIND       PRES   REMARKS
DAVENPORT      CLEAR    -16 -22  74 W9        30.53R WCI -35
IOWA CITY      CLEAR     -7 -12  79 N6        30.57S WCI -20
MT. PLEASANT * CLEAR     -8 -11  84 NW7       30.56S WCI -22
MUSCATINE *    CLEAR     -6 -11  77 CALM      30.58S
QUAD CITIES      N/A     -8 -14  74 W7        30.54S WCI -23
$$

IAZ062-063-075>077-085>089-095>099-271000-
   SOUTHEAST IOWA

CITY           SKY/WX    TMP DP  RH WIND       PRES   REMARKS
BURLINGTON     CLEAR     -6 -11  79 NW9       30.55S WCI -23
FAIRFIELD *    CLEAR     -9 -17  70 NW10      30.56F WCI -28
FORT MADISON * CLEAR     -6  -9  84 W6        30.56S WCI -18
KEOKUK *       CLEAR     -4  -8  84 NW6       30.57S WCI -16
OSKALOOSA *      N/A    -11 -15  84 W9        30.57S WCI -29
CENTERVILLE *  CLEAR     -4  -9  77 W7        30.57S WCI -18
OTTUMWA        CLEAR     -9 -13  83 NW8       30.57R WCI -25
WASHINGTON *   CLEAR    -11 -13  92 W6        30.56S WCI -25
$$

ABBREVIATIONS USED IN REMARKS
   TC - TEMPERATURES IN CELSIUS
  WCI - WIND CHILL INDEX
   HX - HEAT INDEX
  VSB - VISIBILITY
$$



USA.gov is the U.S. government's official web portal to all federal, state and local government web resources and services.